Find Starlink 36786

NORAD ID: 67872 Int'l Des: 2026-034 Owner: SPXS Country: US Constellation: starlink operational
LEOCIRCULAR

Aktuelle Ansicht

3D-Globus wird geladen...

Über Starlink 36786

Beschreibung wird geladen...

Nächste Überflüge

Passes for default location (London). Set your location on the main map for personalized predictions.

Höhenverlauf

Loading altitude history...

Zweizeiliger Elementsatz

1 67872U 26034Y 26146.18599213 .00018662 00000-0 64061-3 0 9995
2 67872 53.1571 204.0674 0001120 93.3309 266.7820 15.30200450 15904
Epoch: 26. Mai 2026 • Age: 11 hours

Aktueller Status

Höhe 475.3 km
Geschwindigkeit 7.63 km/s
Subsatellitenpunkt 7.92°N, 91.47°E
Startdatum 20. Feb. 2026
Alter 0.2 years
Typ internet

Technische Details

Klassifizierung Payload
Masse 575.00 kg
Trockenmasse 530.00 kg
Gesamtmasse 575.00 kg
Länge 0.30 m
Durchmesser 4.10 m
Spannweite 29.00 m
Form Box + pan
Hersteller SPXS
Bus-Typ Starlink V2MO
Phasenstatus In Orbit
Besitzer/Staat SPXS/US

Most Searched